EN

Hourly Weather La Belleza

Today, 30 July, Friday

Time Temperature Precipitation Wind Pressure Humidity
00:00 +13°C° 0.2 mm 2 mps 604 mmHg 93%
01:00 +12°C° 0 mm 2 mps 603 mmHg 92%
02:00 +12°C° 0 mm 2 mps 603 mmHg 91%
03:00 +12°C° 0 mm 2 mps 603 mmHg 90%
04:00 +12°C° 0 mm 2 mps 603 mmHg 88%
05:00 +13°C° 0.1 mm 1 mps 604 mmHg 86%
06:00 +14°C° 0.1 mm 1 mps 604 mmHg 84%
07:00 +15°C° 0 mm 1 mps 605 mmHg 82%
08:00 +18°C° 0 mm 1 mps 606 mmHg 75%
09:00 +20°C° 0 mm 1 mps 607 mmHg 68%
10:00 +22°C° 0 mm 1 mps 608 mmHg 61%
11:00 +22°C° 0.3 mm 1 mps 607 mmHg 63%
12:00 +22°C° 0.3 mm 1 mps 606 mmHg 64%
13:00 +22°C° 0.3 mm 1 mps 606 mmHg 66%
14:00 +22°C° 0.5 mm 1 mps 605 mmHg 69%
15:00 +22°C° 0.5 mm 1 mps 605 mmHg 72%
16:00 +19°C° 0.5 mm 0 mps 604 mmHg 75%
17:00 +20°C° 1.1 mm 1 mps 604 mmHg 81%
18:00 +18°C° 1.1 mm 1 mps 604 mmHg 87%
19:00 +15°C° 1.1 mm 1 mps 604 mmHg 93%
20:00 +15°C° 1.2 mm 1 mps 604 mmHg 94%
21:00 +14°C° 1.2 mm 2 mps 605 mmHg 95%
22:00 +13°C° 1.2 mm 2 mps 605 mmHg 97%
23:00 +13°C° 0.8 mm 2 mps 605 mmHg 96%

Tomorrow, 31 July, Saturday

Time Temperature Precipitation Wind Pressure Humidity
00:00 +13°C° 0.8 mm 1 mps 604 mmHg 96%
01:00 +13°C° 0.8 mm 1 mps 604 mmHg 96%
02:00 +12°C° 0.3 mm 1 mps 604 mmHg 96%
03:00 +12°C° 0.3 mm 1 mps 604 mmHg 95%
04:00 +12°C° 0.3 mm 1 mps 604 mmHg 95%
05:00 +13°C° 0 mm 1 mps 605 mmHg 93%
06:00 +13°C° 0 mm 1 mps 605 mmHg 92%
07:00 +14°C° 0 mm 1 mps 605 mmHg 90%
08:00 +16°C° 0 mm 1 mps 606 mmHg 80%
09:00 +20°C° 0 mm 1 mps 607 mmHg 69%
10:00 +22°C° 0 mm 1 mps 608 mmHg 59%
11:00 +22°C° 0.3 mm 1 mps 607 mmHg 60%
12:00 +23°C° 0.3 mm 1 mps 607 mmHg 61%
13:00 +23°C° 0.3 mm 1 mps 606 mmHg 63%
14:00 +23°C° 0.6 mm 1 mps 606 mmHg 64%
15:00 +23°C° 0.6 mm 1 mps 605 mmHg 66%
16:00 +23°C° 0.6 mm 1 mps 605 mmHg 67%
17:00 +21°C° 0.9 mm 1 mps 605 mmHg 75%
18:00 +19°C° 0.9 mm 1 mps 604 mmHg 83%
19:00 +16°C° 0.9 mm 1 mps 604 mmHg 91%
20:00 +15°C° 0.9 mm 1 mps 604 mmHg 92%
21:00 +15°C° 0.9 mm 2 mps 605 mmHg 93%
22:00 +14°C° 0.9 mm 2 mps 605 mmHg 94%
23:00 +14°C° 0.1 mm 2 mps 605 mmHg 94%

Day after tomorrow, 1 August, Sunday

Time Temperature Precipitation Wind Pressure Humidity
00:00 +13°C° 0.1 mm 2 mps 604 mmHg 94%
01:00 +13°C° 0.1 mm 2 mps 604 mmHg 93%
02:00 +13°C° 0 mm 2 mps 604 mmHg 92%
03:00 +13°C° 0 mm 2 mps 604 mmHg 90%
04:00 +13°C° 0 mm 2 mps 604 mmHg 88%
05:00 +13°C° 0 mm 2 mps 604 mmHg 86%
06:00 +14°C° 0 mm 1 mps 605 mmHg 84%
07:00 +14°C° 0 mm 1 mps 605 mmHg 82%
08:00 +18°C° 0 mm 1 mps 606 mmHg 72%
09:00 +21°C° 0 mm 1 mps 607 mmHg 61%
10:00 +23°C° 0 mm 1 mps 608 mmHg 51%
11:00 +24°C° 0 mm 1 mps 607 mmHg 50%
12:00 +25°C° 0 mm 1 mps 607 mmHg 50%
13:00 +25°C° 0 mm 1 mps 607 mmHg 49%
14:00 +25°C° 0.5 mm 1 mps 606 mmHg 55%
15:00 +24°C° 0.5 mm 1 mps 606 mmHg 61%
16:00 +23°C° 0.5 mm 1 mps 605 mmHg 66%
17:00 +21°C° 0.6 mm 1 mps 605 mmHg 74%
18:00 +19°C° 0.6 mm 1 mps 605 mmHg 82%
19:00 +16°C° 0.6 mm 2 mps 605 mmHg 89%
20:00 +15°C° 0.8 mm 2 mps 605 mmHg 91%
21:00 +14°C° 0.8 mm 2 mps 605 mmHg 92%
22:00 +14°C° 0.8 mm 2 mps 605 mmHg 93%
23:00 +14°C° 0.3 mm 2 mps 605 mmHg 92%

2 August, Monday

Time Temperature Precipitation Wind Pressure Humidity
00:00 +14°C° 0.3 mm 2 mps 605 mmHg 91%
01:00 +14°C° 0.3 mm 2 mps 604 mmHg 90%
02:00 +14°C° 0.1 mm 1 mps 604 mmHg 89%
03:00 +14°C° 0.1 mm 1 mps 604 mmHg 89%
04:00 +14°C° 0.1 mm 1 mps 604 mmHg 88%
05:00 +14°C° 0 mm 1 mps 605 mmHg 86%
06:00 +14°C° 0 mm 1 mps 605 mmHg 84%
07:00 +15°C° 0 mm 1 mps 606 mmHg 83%
08:00 +18°C° 0 mm 1 mps 606 mmHg 74%
09:00 +20°C° 0 mm 1 mps 607 mmHg 66%
10:00 +22°C° 0 mm 1 mps 608 mmHg 57%
11:00 +22°C° 0.1 mm 1 mps 607 mmHg 57%
12:00 +22°C° 0.1 mm 1 mps 607 mmHg 58%
13:00 +22°C° 0.1 mm 1 mps 607 mmHg 58%
14:00 +22°C° 0.1 mm 1 mps 606 mmHg 60%
15:00 +22°C° 0.1 mm 1 mps 606 mmHg 63%
16:00 +19°C° 0.1 mm 0 mps 606 mmHg 65%
17:00 +20°C° 0.1 mm 1 mps 605 mmHg 71%
18:00 +18°C° 0.1 mm 1 mps 605 mmHg 77%
19:00 +15°C° 0.1 mm 2 mps 605 mmHg 83%
20:00 +15°C° 0.3 mm 2 mps 605 mmHg 82%
21:00 +14°C° 0.3 mm 2 mps 606 mmHg 82%
22:00 +14°C° 0.3 mm 2 mps 606 mmHg 81%
23:00 +13°C° 0.1 mm 2 mps 605 mmHg 82%

3 August, Tuesday

Time Temperature Precipitation Wind Pressure Humidity
00:00 +13°C° 0.1 mm 2 mps 605 mmHg 83%
01:00 +13°C° 0.1 mm 2 mps 605 mmHg 83%
02:00 +13°C° 0.1 mm 2 mps 605 mmHg 82%
03:00 +13°C° 0.1 mm 2 mps 604 mmHg 81%
04:00 +13°C° 0.1 mm 2 mps 604 mmHg 80%
05:00 +13°C° 0 mm 2 mps 605 mmHg 79%
06:00 +14°C° 0 mm 1 mps 605 mmHg 77%
07:00 +14°C° 0 mm 1 mps 606 mmHg 76%
08:00 +16°C° 0 mm 1 mps 606 mmHg 68%
09:00 +20°C° 0 mm 1 mps 607 mmHg 60%
10:00 +22°C° 0 mm 1 mps 608 mmHg 52%
11:00 +23°C° 0.1 mm 1 mps 608 mmHg 50%
12:00 +23°C° 0.1 mm 1 mps 608 mmHg 48%
13:00 +24°C° 0.1 mm 1 mps 607 mmHg 46%
14:00 +23°C° 0.1 mm 1 mps 607 mmHg 51%
15:00 +22°C° 0.1 mm 1 mps 606 mmHg 55%
16:00 +21°C° 0.1 mm 1 mps 606 mmHg 60%
17:00 +19°C° 0 mm 1 mps 605 mmHg 66%
18:00 +16°C° 0 mm 2 mps 605 mmHg 71%
19:00 +14°C° 0 mm 2 mps 605 mmHg 77%
20:00 +14°C° 0.2 mm 2 mps 605 mmHg 78%
21:00 +13°C° 0.2 mm 2 mps 605 mmHg 79%
22:00 +13°C° 0.2 mm 2 mps 605 mmHg 80%
23:00 +13°C° 0.2 mm 2 mps 605 mmHg 81%

4 August, Wednesday

Time Temperature Precipitation Wind Pressure Humidity
00:00 +12°C° 0.2 mm 2 mps 605 mmHg 81%
01:00 +12°C° 0.2 mm 2 mps 605 mmHg 81%
02:00 +12°C° 0 mm 2 mps 605 mmHg 81%
03:00 +12°C° 0 mm 2 mps 604 mmHg 80%
04:00 +12°C° 0 mm 2 mps 604 mmHg 79%
05:00 +13°C° 0 mm 1 mps 605 mmHg 78%
06:00 +14°C° 0 mm 1 mps 605 mmHg 77%
07:00 +14°C° 0 mm 1 mps 606 mmHg 76%
08:00 +18°C° 0 mm 1 mps 607 mmHg 67%
09:00 +20°C° 0 mm 1 mps 608 mmHg 59%
10:00 +23°C° 0 mm 1 mps 609 mmHg 50%
11:00 +23°C° 0.1 mm 1 mps 608 mmHg 50%
12:00 +24°C° 0.1 mm 1 mps 608 mmHg 49%
13:00 +24°C° 0.1 mm 1 mps 608 mmHg 48%
14:00 +24°C° 0.3 mm 1 mps 607 mmHg 53%
15:00 +23°C° 0.3 mm 1 mps 606 mmHg 57%
16:00 +22°C° 0.3 mm 1 mps 606 mmHg 62%
17:00 +20°C° 0.3 mm 1 mps 605 mmHg 70%
18:00 +18°C° 0.3 mm 1 mps 605 mmHg 78%
19:00 +15°C° 0.3 mm 2 mps 605 mmHg 87%
20:00 +14°C° 0.2 mm 2 mps 605 mmHg 88%
21:00 +13°C° 0.2 mm 2 mps 605 mmHg 90%
22:00 +13°C° 0.2 mm 2 mps 605 mmHg 91%
23:00 +12°C° 0.3 mm 2 mps 605 mmHg 91%
Show more